Weather History for KFIG - April, 2013

Change the Weather History Date:

Sunday, April 21, 2013

  Actual Average (KDUJ) Record (KDUJ)
Temperature  
Mean Temperature 37 °F 49 °F  
Max Temperature 52 °F 60 °F 84 °F (1987)
Min Temperature 24 °F 38 °F 20 °F (1981)
Degree Days  
Heating Degree Days 28 16  
Month to date heating degree days 421  
Since 1 July heating degree days 6379  
Cooling Degree Days 0 0  
Month to date cooling degree days 0  
Year to date cooling degree days 0  
Moisture  
Dew Point 18 °F    
Average Humidity 49    
Maximum Humidity 81    
Minimum Humidity 25    
Precipitation  
Precipitation 0.00 in 0.11 in 1.14 in (1976)
Month to date precipitation 2.43  
Sea Level Pressure  
Sea Level Pressure 30.54 in    
Wind  
Wind Speed 2 mph (ENE)    
Max Wind Speed 10 mph    
Max Gust Speed 16 mph    
Visibility 10 miles    
Events Rain    
T = Trace of Precipitation, MM = Missing Value Source: NWS Daily Summary

Daily Weather History Graph

Daily Weather History Graph

Search for Another Location

Airport or City:

Trip Planner

Search our weather history database for the weather conditions in past years. The results will help you decide how hot, cold, wet, or windy it might be!

Date:

Astronomy

Apr. 21, 2013 Rise Set
Actual Time 6:25 AM EDT 8:00 PM EDT
Civil Twilight 5:56 AM EDT 8:29 PM EDT
Nautical Twilight 5:21 AM EDT 9:04 PM EDT
Astronomical Twilight 4:43 AM EDT 9:41 PM EDT
Moon 3:41 PM EDT (4/21) 3:48 AM EDT (4/21)
Length of Visible Light 14h 33m
Length of Day
13h 35m
Waxing Gibbous, 79% of the Moon is Illuminated
Apr 21
Waxing Gibbous
Apr 25
Full
May 2
Last Quarter
May 9
New
May 18
First Quarter

Hourly Weather History & Observations

Time (EDT) Temp. Windchill Dew Point Humidity Pressure Visibility Wind Dir Wind Speed Gust Speed Precip Events Conditions
12:54 AM 30.9 °F - 17.1 °F 57% 30.43 in 10.0 mi Calm Calm - N/A   Clear
1:54 AM 28.0 °F - 19.0 °F 69% 30.45 in 10.0 mi Calm Calm - N/A   Clear
2:54 AM 25.0 °F - 19.0 °F 78% 30.46 in 10.0 mi Calm Calm - N/A   Clear
3:54 AM 24.1 °F - 19.0 °F 81% 30.47 in 10.0 mi Calm Calm - N/A   Clear
4:54 AM 24.1 °F - 19.0 °F 81% 30.50 in 10.0 mi Calm Calm - N/A   Clear
5:54 AM 24.1 °F 18.2 °F 18.0 °F 77% 30.53 in 10.0 mi North 4.6 mph - N/A   Clear
6:54 AM 24.1 °F - 19.0 °F 81% 30.57 in 10.0 mi Calm Calm - N/A   Clear
7:54 AM 27.0 °F - 21.0 °F 78% 30.59 in 10.0 mi Calm Calm - N/A   Clear
8:54 AM 33.1 °F 26.9 °F 21.9 °F 64% 30.61 in 10.0 mi NNE 6.9 mph - N/A   Clear
9:54 AM 36.0 °F 28.5 °F 16.0 °F 44% 30.61 in 10.0 mi NNW 10.4 mph 16.1 mph N/A   Clear
10:54 AM 39.0 °F 35.7 °F 16.0 °F 39% 30.62 in 10.0 mi East 4.6 mph - 0.00 in   Clear
11:54 AM 42.1 °F - 17.1 °F 37% 30.61 in 10.0 mi Calm Calm - 0.00 in   Clear
12:54 PM 46.0 °F 43.9 °F 19.0 °F 34% 30.59 in 10.0 mi Variable 4.6 mph - 0.00 in   Clear
1:54 PM 46.9 °F - 15.1 °F 28% 30.57 in 10.0 mi NE 9.2 mph - 0.00 in   Clear
2:54 PM 48.9 °F - 17.1 °F 28% 30.55 in 10.0 mi ENE 8.1 mph - 0.00 in Rain Light Rain
3:54 PM 48.9 °F - 14.0 °F 25% 30.53 in 10.0 mi Variable 5.8 mph - 0.00 in   Clear
4:54 PM 50.0 °F - 15.1 °F 25% 30.51 in 10.0 mi East 9.2 mph - 0.00 in   Clear
5:54 PM 50.0 °F - 16.0 °F 26% 30.51 in 10.0 mi Calm Calm - N/A   Clear
6:54 PM 48.9 °F - 16.0 °F 27% 30.53 in 10.0 mi SE 6.9 mph - N/A   Clear
7:54 PM 46.0 °F 43.9 °F 16.0 °F 30% 30.54 in 10.0 mi SE 4.6 mph - N/A   Clear
8:54 PM 43.0 °F - 17.1 °F 35% 30.54 in 10.0 mi Calm Calm - N/A   Clear
9:54 PM 42.1 °F 39.2 °F 19.0 °F 40% 30.56 in 10.0 mi ESE 4.6 mph - N/A   Clear
10:54 PM 41.0 °F 38.0 °F 19.9 °F 43% 30.56 in 10.0 mi East 4.6 mph - N/A   Clear
11:54 PM 37.0 °F - 19.9 °F 50% 30.56 in 10.0 mi Calm Calm - N/A   Clear